This is the latest recevied weather packets stored in our database for station/object OE5RBO. If no packets are shown the sender has not sent any weather packets the latest 10 day(s).
| Time | Temp. | Humidity | Pressure | Rain* | Wind** | Luminosity | Snow |
|---|---|---|---|---|---|---|---|
| 1787532345 | 11.11° C | 98% | 1020.8 hPa | 0 mm | - | - | - |
| 1787531744 | 11.11° C | 98% | 1020.9 hPa | 0 mm | - | - | - |
| 1787531144 | 11.11° C | 98% | 1020.9 hPa | 0 mm | - | - | - |
| 1787530544 | 11.67° C | 98% | 1020.9 hPa | 0 mm | - | - | - |
| 1787529343 | 11.67° C | 97% | 1021.2 hPa | 0 mm | - | - | - |
| 1787528743 | 11.67° C | 97% | 1021.2 hPa | 0 mm | - | - | - |
| 1787527542 | 12.22° C | 97% | 1021.4 hPa | 0 mm | - | - | - |
| 1787526941 | 12.22° C | 97% | 1021.4 hPa | 0 mm | - | - | - |
| 1787526341 | 12.22° C | 97% | 1021.4 hPa | 0 mm | - | - | - |
| 1787525741 | 12.22° C | 97% | 1021.4 hPa | 0 mm | - | - | - |
| 1787523940 | 12.78° C | 96% | 1021.4 hPa | 0 mm | - | - | - |
| 1787523339 | 12.78° C | 96% | 1021.4 hPa | 0 mm | - | - | - |
| 1787522739 | 13.33° C | 96% | 1021.4 hPa | 0 mm | - | - | - |
| 1787522138 | 13.33° C | 96% | 1021.4 hPa | 0 mm | - | - | - |
| 1787520938 | 13.89° C | 94% | 1021.6 hPa | 0 mm | - | - | - |
| 1787520337 | 13.89° C | 93% | 1021.3 hPa | 0 mm | - | - | - |
| 1787519737 | 13.89° C | 93% | 1021.4 hPa | 0 mm | - | - | - |
| 1787517936 | 14.44° C | 94% | 1021.4 hPa | 0 mm | - | - | - |
| 1787517335 | 15° C | 94% | 1021.6 hPa | 0 mm | - | - | - |
| 1787516135 | 15.56° C | 87% | 1021.6 hPa | 0 mm | - | - | - |
| 1787515535 | 15.56° C | 88% | 1021.6 hPa | 0 mm | - | - | - |
| 1787514934 | 15.56° C | 87% | 1021.7 hPa | 0 mm | - | - | - |
| 1787514334 | 15.56° C | 87% | 1021.6 hPa | 0 mm | - | - | - |
| 1787513733 | 16.11° C | 87% | 1021.8 hPa | 0 mm | - | - | - |
| 1787513133 | 16.67° C | 87% | 1021.7 hPa | 0 mm | - | - | - |
* Rain since midnight (hover to see other rain measurements)
** Current wind speed in m/s (hover to see current wind gust speed)